| time (UTC) | temp F | wind direction | speed MPH | gust MPH | rain 1hr in | rain 24hr in | rain mn in | humidity % | barometer mb |
| 20260903092101 | 71 | 220 | 0.0 | 0.0 | 0.00 | 0.00 | 0.00 | 99 | 1010.9 |
| 20260903091541 | 71 | 220 | 0.0 | 0.0 | 0.00 | 0.00 | 0.00 | 99 | 1010.8 |
| 20260903091021 | 71 | 220 | 0.0 | 0.0 | 0.00 | 0.00 | 0.00 | 99 | 1010.7 |
| 20260903090501 | 71 | 220 | 0.0 | 0.0 | 0.00 | 0.00 | 0.00 | 99 | 1010.7 |
| 20260903085941 | 71 | 220 | 0.0 | 0.0 | 0.00 | 0.00 | 0.00 | 99 | 1010.8 |
| 20260903085421 | 71 | 220 | 0.0 | 0.0 | 0.00 | 0.00 | 0.00 | 98 | 1010.8 |
| 20260903084901 | 72 | 220 | 0.0 | 0.0 | 0.00 | 0.00 | 0.00 | 98 | 1010.7 |
| 20260903083833 | 72 | 220 | 0.0 | 0.0 | 0.00 | 0.00 | 0.00 | 98 | 1010.6 |
| 20260903083233 | 72 | 220 | 0.0 | 0.0 | 0.00 | 0.00 | 0.00 | 98 | 1010.6 |
| 20260903082633 | 72 | 220 | 0.0 | 0.0 | 0.00 | 0.00 | 0.00 | 97 | 1010.8 |
| 20260903082033 | 72 | 220 | 0.0 | 0.0 | 0.00 | 0.00 | 0.00 | 97 | 1010.7 |
| 20260903081433 | 73 | 220 | 0.0 | 0.0 | 0.00 | 0.00 | 0.00 | 96 | 1010.5 |
| 20260903080832 | 73 | 220 | 0.0 | 0.0 | 0.00 | 0.00 | 0.00 | 96 | 1010.9 |
| 20260903080233 | 73 | 220 | 0.0 | 0.0 | 0.00 | 0.00 | 0.00 | 96 | 1010.5 |
| 20260903075633 | 73 | 220 | 0.0 | 0.0 | 0.00 | 0.00 | 0.00 | 96 | 1010.6 |
| 20260903075033 | 73 | 220 | 0.0 | 0.0 | 0.00 | 0.00 | 0.00 | 96 | 1010.7 |
| 20260903074433 | 73 | 220 | 0.0 | 0.0 | 0.00 | 0.00 | 0.00 | 96 | 1010.4 |
| 20260903073925 | 73 | 220 | 0.0 | 0.0 | 0.00 | 0.00 | 0.00 | 96 | 1010.5 |
| 20260903073406 | 73 | 220 | 0.0 | 0.0 | 0.00 | 0.00 | 0.00 | 95 | 1010.4 |
| 20260903072835 | 73 | 220 | 0.0 | 0.0 | 0.00 | 0.00 | 0.00 | 96 | 1010.6 |
| 20260903072333 | 73 | 220 | 0.0 | 0.0 | 0.00 | 0.00 | 0.00 | 96 | 1010.6 |
| 20260903071733 | 73 | 220 | 0.0 | 0.0 | 0.00 | 0.00 | 0.00 | 97 | 1010.4 |
| 20260903071133 | 73 | 220 | 0.0 | 0.0 | 0.00 | 0.00 | 0.00 | 97 | 1010.5 |
| 20260903070533 | 73 | 220 | 0.0 | 0.0 | 0.00 | 0.00 | 0.00 | 97 | 1010.6 |
| 20260903065933 | 73 | 220 | 0.0 | 0.0 | 0.00 | 0.00 | 0.00 | 97 | 1010.4 |
| 20260903065333 | 73 | 220 | 0.0 | 0.0 | 0.00 | 0.00 | 0.00 | 97 | 1010.5 |
| 20260903064733 | 73 | 220 | 0.0 | 0.0 | 0.00 | 0.00 | 0.00 | 96 | 1010.7 |
| 20260903064133 | 73 | 220 | 0.0 | 0.0 | 0.00 | 0.00 | 0.00 | 96 | 1010.7 |
| 20260903063533 | 73 | 220 | 0.0 | 0.0 | 0.00 | 0.00 | 0.00 | 96 | 1010.6 |
| 20260903063021 | 73 | 220 | 0.0 | 0.0 | 0.00 | 0.00 | 0.00 | 96 | 1010.4 |
| 20260903062502 | 73 | 220 | 0.0 | 0.0 | 0.00 | 0.00 | 0.00 | 96 | 1010.6 |
| 20260903061941 | 73 | 220 | 0.0 | 0.0 | 0.00 | 0.00 | 0.00 | 95 | 1010.5 |
| 20260903061433 | 74 | 220 | 0.0 | 0.0 | 0.00 | 0.00 | 0.00 | 95 | 1010.6 |
| 20260903060341 | 74 | 220 | 0.0 | 0.0 | 0.00 | 0.00 | 0.00 | 94 | 1010.6 |
| 20260903055822 | 74 | 220 | 0.0 | 0.0 | 0.00 | 0.00 | 0.00 | 93 | 1010.7 |
| 20260903055306 | 75 | 220 | 0.0 | 0.0 | 0.00 | 0.00 | 0.00 | 92 | 1010.6 |
| 20260903054742 | 75 | 220 | 0.0 | 0.0 | 0.00 | 0.00 | 0.00 | 91 | 1010.5 |
| 20260903054222 | 76 | 220 | 0.0 | 0.0 | 0.00 | 0.00 | 0.00 | 90 | 1010.7 |
| 20260903053702 | 76 | 220 | 0.0 | 0.0 | 0.00 | 0.00 | 0.00 | 89 | 1010.6 |
| 20260903053141 | 77 | 220 | 0.0 | 0.0 | 0.00 | 0.00 | 0.00 | 87 | 1010.5 |
| 20260903052621 | 77 | 220 | 0.0 | 0.0 | 0.00 | 0.00 | 0.00 | 86 | 1010.6 |
| 20260903052102 | 78 | 220 | 0.0 | 0.0 | 0.00 | 0.00 | 0.00 | 85 | 1010.4 |
| 20260903051542 | 78 | 220 | 0.0 | 0.0 | 0.00 | 0.00 | 0.00 | 84 | 1010.4 |
| 20260903051022 | 78 | 220 | 0.0 | 0.0 | 0.00 | 0.00 | 0.00 | 84 | 1010.6 |
| 20260903050502 | 78 | 220 | 0.0 | 0.0 | 0.00 | 0.00 | 0.00 | 85 | 1010.4 |
| 20260903045422 | 78 | 220 | 0.0 | 0.0 | 0.00 | 0.00 | 0.00 | 84 | 1010.3 |
| 20260903044902 | 78 | 220 | 0.0 | 0.0 | 0.00 | 0.00 | 0.00 | 84 | 1010.1 |
| 20260903044342 | 78 | 220 | 0.0 | 0.0 | 0.00 | 0.00 | 0.00 | 85 | 1010.2 |
| 20260903043822 | 77 | 220 | 0.0 | 0.0 | 0.00 | 0.00 | 0.00 | 87 | 1010.2 |
| 20260903043302 | 77 | 220 | 0.0 | 0.0 | 0.00 | 0.00 | 0.00 | 88 | 1010.3 |
| 20260903042742 | 78 | 220 | 0.0 | 0.0 | 0.00 | 0.00 | 0.00 | 87 | 1010.3 |
| 20260903042222 | 78 | 220 | 0.0 | 0.0 | 0.00 | 0.00 | 0.00 | 86 | 1010.1 |
| 20260903041702 | 78 | 220 | 0.0 | 0.0 | 0.00 | 0.00 | 0.00 | 85 | 1010.0 |
| 20260903041134 | 79 | 220 | 0.0 | 0.0 | 0.00 | 0.00 | 0.00 | 85 | 1010.0 |
| 20260903040622 | 79 | 219 | 0.0 | 0.0 | 0.00 | 0.00 | 0.00 | 84 | 1010.2 |
| 20260903035533 | 79 | 247 | 0.0 | 0.0 | 0.00 | 0.00 | 0.00 | 84 | 1010.3 |
| 20260903035022 | 80 | 247 | 0.0 | 0.0 | 0.00 | 0.00 | 0.00 | 83 | 1010.0 |
| 20260903034503 | 80 | 247 | 0.0 | 0.0 | 0.00 | 0.00 | 0.00 | 82 | 1009.9 |
| 20260903033934 | 80 | 247 | 0.0 | 0.0 | 0.00 | 0.00 | 0.00 | 82 | 1010.3 |
| 20260903033422 | 80 | 227 | 0.0 | 0.0 | 0.00 | 0.00 | 0.00 | 81 | 1009.9 |
| 20260903032902 | 80 | 227 | 0.0 | 0.0 | 0.00 | 0.00 | 0.00 | 81 | 1010.2 |
| 20260903032333 | 80 | 221 | 0.0 | 0.0 | 0.00 | 0.00 | 0.00 | 83 | 1010.0 |
| 20260903031822 | 80 | 221 | 0.0 | 0.0 | 0.00 | 0.00 | 0.00 | 84 | 1010.0 |
| 20260903031302 | 79 | 221 | 0.0 | 0.0 | 0.00 | 0.00 | 0.00 | 87 | 1009.8 |
| 20260903030733 | 78 | 221 | 0.0 | 0.0 | 0.00 | 0.00 | 0.00 | 90 | 1010.0 |
| 20260903030222 | 76 | 221 | 0.0 | 0.0 | 0.00 | 0.00 | 0.00 | 97 | 1010.1 |
| 20260903025702 | 76 | 220 | 0.0 | 0.0 | 0.00 | 0.00 | 0.00 | 99 | 1010.1 |
| 20260903025133 | 76 | 220 | 0.0 | 0.0 | 0.00 | 0.00 | 0.00 | 99 | 1010.1 |
| 20260903024622 | 76 | 220 | 0.0 | 0.0 | 0.00 | 0.00 | 0.00 | 99 | 1010.1 |
| 20260903024102 | 77 | 220 | 0.0 | 0.0 | 0.00 | 0.00 | 0.00 | 99 | 1010.3 |
| 20260903023533 | 77 | 220 | 0.0 | 0.0 | 0.00 | 0.00 | 0.00 | 99 | 1010.0 |
| 20260903022503 | 77 | 220 | 0.0 | 0.0 | 0.00 | 0.00 | 0.00 | 99 | 1010.1 |
| 20260903021933 | 77 | 220 | 0.0 | 0.0 | 0.00 | 0.00 | 0.00 | 99 | 1010.1 |
| 20260903021422 | 77 | 220 | 0.0 | 0.0 | 0.00 | 0.00 | 0.00 | 98 | 1010.2 |
| 20260903020902 | 77 | 220 | 0.0 | 0.0 | 0.00 | 0.00 | 0.00 | 98 | 1010.0 |
| 20260903020333 | 77 | 220 | 0.0 | 0.0 | 0.00 | 0.00 | 0.00 | 98 | 1010.0 |
| 20260903015822 | 78 | 220 | 0.0 | 0.0 | 0.00 | 0.00 | 0.00 | 98 | 1010.1 |
| 20260903014733 | 78 | 220 | 0.0 | 0.0 | 0.00 | 0.00 | 0.00 | 98 | 1009.9 |
| 20260903014222 | 78 | 220 | 0.0 | 0.0 | 0.00 | 0.00 | 0.00 | 98 | 1009.7 |
| 20260903013702 | 79 | 220 | 0.0 | 0.0 | 0.00 | 0.00 | 0.00 | 98 | 1009.8 |
| 20260903013133 | 79 | 220 | 0.0 | 0.0 | 0.00 | 0.00 | 0.00 | 97 | 1009.5 |
| 20260903012623 | 79 | 220 | 0.0 | 0.0 | 0.00 | 0.00 | 0.00 | 97 | 1009.5 |
| 20260903012102 | 79 | 220 | 0.0 | 0.0 | 0.00 | 0.00 | 0.00 | 96 | 1009.3 |
| 20260903011533 | 79 | 220 | 0.0 | 0.0 | 0.00 | 0.00 | 0.00 | 96 | 1009.5 |
| 20260903011022 | 79 | 220 | 0.0 | 0.0 | 0.00 | 0.00 | 0.00 | 96 | 1009.5 |
| 20260903005933 | 80 | 220 | 0.0 | 0.0 | 0.00 | 0.00 | 0.00 | 95 | 1009.3 |
| 20260903005422 | 80 | 220 | 0.0 | 0.0 | 0.00 | 0.00 | 0.00 | 94 | 1009.3 |
| 20260903004903 | 81 | 220 | 0.0 | 0.0 | 0.00 | 0.00 | 0.00 | 93 | 1009.3 |
| 20260903004333 | 81 | 220 | 0.0 | 0.0 | 0.00 | 0.00 | 0.00 | 91 | 1009.3 |
| 20260903003822 | 81 | 220 | 0.0 | 0.0 | 0.00 | 0.00 | 0.00 | 91 | 1009.3 |
| 20260903003303 | 82 | 220 | 0.0 | 0.0 | 0.00 | 0.00 | 0.00 | 90 | 1009.2 |
| 20260903002733 | 82 | 220 | 0.0 | 0.0 | 0.00 | 0.00 | 0.00 | 89 | 1009.2 |
| 20260903002222 | 83 | 220 | 0.0 | 0.0 | 0.00 | 0.00 | 0.00 | 86 | 1009.3 |
| 20260903001639 | 84 | 220 | 0.0 | 0.0 | 0.00 | 0.00 | 0.00 | 84 | 1009.2 |
| 20260903001127 | 84 | 220 | 0.0 | 0.0 | 0.00 | 0.00 | 0.00 | 84 | 1009.3 |
| 20260903000606 | 85 | 220 | 0.0 | 0.0 | 0.00 | 0.00 | 0.00 | 82 | 1009.4 |
| 20260903000039 | 86 | 220 | 0.0 | 0.0 | 0.00 | 0.00 | 0.00 | 81 | 1009.2 |
| 20260902235526 | 88 | 220 | 0.0 | 0.0 | 0.00 | 0.00 | 0.00 | 78 | 1009.5 |
| 20260902235007 | 89 | 220 | 0.0 | 0.0 | 0.00 | 0.00 | 0.00 | 75 | 1009.5 |
| 20260902234446 | 90 | 220 | 0.0 | 0.0 | 0.00 | 0.00 | 0.00 | 73 | 1009.5 |
| 20260902233926 | 92 | 220 | 0.0 | 0.0 | 0.00 | 0.00 | 0.00 | 70 | 1009.4 |
| 20260902233406 | 92 | 220 | 0.0 | 0.0 | 0.00 | 0.00 | 0.00 | 72 | 1009.6 |
| 20260902232846 | 93 | 220 | 0.0 | 0.0 | 0.00 | 0.00 | 0.00 | 69 | 1009.4 |
| 20260902232310 | 93 | 219 | 0.0 | 0.0 | 0.00 | 0.00 | 0.00 | 69 | 1009.3 |
| 20260902231750 | 93 | 219 | 0.0 | 0.0 | 0.00 | 0.00 | 0.00 | 68 | 1009.4 |
| 20260902231231 | 93 | 219 | 0.0 | 0.0 | 0.00 | 0.00 | 0.00 | 67 | 1009.5 |
| 20260902230710 | 93 | 219 | 0.0 | 0.0 | 0.00 | 0.00 | 0.00 | 66 | 1009.4 |
| 20260902230150 | 93 | 219 | 0.0 | 0.0 | 0.00 | 0.00 | 0.00 | 66 | 1009.4 |
| 20260902225631 | 93 | 219 | 0.0 | 0.0 | 0.00 | 0.00 | 0.00 | 66 | 1009.2 |
| 20260902224551 | 93 | 219 | 0.0 | 1.0 | 0.00 | 0.00 | 0.00 | 66 | 1009.4 |
| 20260902224031 | 94 | 219 | 0.0 | 1.0 | 0.00 | 0.00 | 0.00 | 64 | 1009.3 |
| 20260902223511 | 96 | 219 | 0.0 | 0.0 | 0.00 | 0.00 | 0.00 | 62 | 1009.4 |
| 20260902222950 | 97 | 219 | 0.0 | 0.0 | 0.00 | 0.00 | 0.00 | 57 | 1009.5 |
| 20260902222431 | 97 | 219 | 1.0 | 2.0 | 0.00 | 0.00 | 0.00 | 57 | 1009.4 |
| 20260902221350 | 97 | 234 | 0.0 | 1.0 | 0.00 | 0.00 | 0.00 | 55 | 1009.6 |
| 20260902220832 | 97 | 249 | 2.0 | 2.0 | 0.00 | 0.00 | 0.00 | 52 | 1009.5 |
| 20260902220311 | 97 | 249 | 1.0 | 1.0 | 0.00 | 0.00 | 0.00 | 54 | 1009.5 |
| 20260902215231 | 96 | 259 | 3.0 | 3.0 | 0.00 | 0.00 | 0.00 | 53 | 1009.7 |
| 20260902214710 | 97 | 224 | 2.0 | 3.0 | 0.00 | 0.00 | 0.00 | 51 | 1009.6 |
| 20260902214150 | 97 | 234 | 2.0 | 3.0 | 0.00 | 0.00 | 0.00 | 51 | 1009.7 |
| 20260902213631 | 97 | 236 | 2.0 | 3.0 | 0.00 | 0.00 | 0.00 | 55 | 1009.6 |
| 20260902213111 | 97 | 221 | 2.0 | 2.0 | 0.00 | 0.00 | 0.00 | 54 | 1009.8 |
| 20260902212550 | 97 | 218 | 2.0 | 2.0 | 0.00 | 0.00 | 0.00 | 53 | 1009.6 |
| 20260902212031 | 97 | 253 | 1.0 | 2.0 | 0.00 | 0.00 | 0.00 | 56 | 1009.9 |
| 20260902211511 | 98 | 182 | 0.0 | 1.0 | 0.00 | 0.00 | 0.00 | 56 | 1009.7 |
| 20260902210951 | 97 | 237 | 2.0 | 2.0 | 0.00 | 0.00 | 0.00 | 51 | 1010.0 |
| 20260902210431 | 97 | 215 | 2.0 | 3.0 | 0.00 | 0.00 | 0.00 | 52 | 1010.0 |
| 20260902205910 | 97 | 218 | 2.0 | 3.0 | 0.00 | 0.00 | 0.00 | 52 | 1010.0 |
| 20260902205351 | 97 | 271 | 3.0 | 4.0 | 0.00 | 0.00 | 0.00 | 54 | 1009.9 |
| 20260902204833 | 97 | 253 | 3.0 | 4.0 | 0.00 | 0.00 | 0.00 | 54 | 1010.0 |
| 20260902204233 | 97 | 275 | 2.0 | 3.0 | 0.00 | 0.00 | 0.00 | 53 | 1010.2 |
| 20260902203633 | 97 | 220 | 1.0 | 2.0 | 0.00 | 0.00 | 0.00 | 53 | 1010.2 |
| 20260902203033 | 97 | 272 | 3.0 | 4.0 | 0.00 | 0.00 | 0.00 | 50 | 1010.2 |
| 20260902202433 | 98 | 267 | 3.0 | 4.0 | 0.00 | 0.00 | 0.00 | 51 | 1010.4 |
| 20260902201933 | 98 | 185 | 0.0 | 0.0 | 0.00 | 0.00 | 0.00 | 53 | 1010.5 |
| 20260902201333 | 98 | 225 | 2.0 | 3.0 | 0.00 | 0.00 | 0.00 | 50 | 1010.4 |
| 20260902200815 | 97 | 241 | 2.0 | 3.0 | 0.00 | 0.00 | 0.00 | 53 | 1010.4 |
| 20260902195735 | 96 | 275 | 1.0 | 2.0 | 0.00 | 0.00 | 0.00 | 57 | 1010.1 |
| 20260902194726 | 98 | 212 | 2.0 | 2.0 | 0.00 | 0.00 | 0.00 | 54 | 1010.7 |
| 20260902194207 | 97 | 218 | 2.0 | 2.0 | 0.00 | 0.00 | 0.00 | 53 | 1010.6 |
| 20260902193647 | 96 | 235 | 0.0 | 0.0 | 0.00 | 0.00 | 0.00 | 58 | 1010.6 |
| 20260902193133 | 97 | 268 | 3.0 | 5.0 | 0.00 | 0.00 | 0.00 | 55 | 1010.5 |
| 20260902192623 | 96 | 214 | 1.0 | 2.0 | 0.00 | 0.00 | 0.00 | 57 | 1010.7 |
| 20260902192103 | 95 | 268 | 2.0 | 3.0 | 0.00 | 0.00 | 0.00 | 57 | 1010.7 |
| 20260902191542 | 96 | 283 | 4.0 | 5.0 | 0.00 | 0.00 | 0.00 | 57 | 1010.8 |
| 20260902191033 | 96 | 280 | 4.0 | 5.0 | 0.00 | 0.00 | 0.00 | 56 | 1011.0 |
| 20260902190518 | 96 | 258 | 4.0 | 5.0 | 0.00 | 0.00 | 0.00 | 54 | 1011.1 |
| 20260902185958 | 95 | 256 | 6.0 | 8.0 | 0.00 | 0.00 | 0.00 | 53 | 1010.8 |
| 20260902185433 | 96 | 272 | 6.0 | 6.0 | 0.00 | 0.00 | 0.00 | 55 | 1011.0 |
| 20260902184919 | 95 | 266 | 3.0 | 4.0 | 0.00 | 0.00 | 0.00 | 55 | 1010.9 |
| 20260902184358 | 95 | 256 | 4.0 | 4.0 | 0.00 | 0.00 | 0.00 | 57 | 1011.1 |
| 20260902183333 | 95 | 310 | 4.0 | 4.0 | 0.00 | 0.00 | 0.00 | 58 | 1010.8 |
| 20260902182815 | 95 | 273 | 6.0 | 6.0 | 0.00 | 0.00 | 0.00 | 57 | 1011.0 |
| 20260902182255 | 95 | 250 | 4.0 | 5.0 | 0.00 | 0.00 | 0.00 | 58 | 1011.1 |
| 20260902181734 | 95 | 251 | 2.0 | 3.0 | 0.00 | 0.00 | 0.00 | 58 | 1011.1 |
| 20260902181231 | 95 | 263 | 5.0 | 5.0 | 0.00 | 0.00 | 0.00 | 57 | 1011.1 |
| 20260902180711 | 95 | 167 | 3.0 | 4.0 | 0.00 | 0.00 | 0.00 | 59 | 1011.4 |
| 20260902180151 | 94 | 296 | 4.0 | 5.0 | 0.00 | 0.00 | 0.00 | 57 | 1011.3 |
| 20260902175631 | 94 | 203 | 1.0 | 3.0 | 0.00 | 0.00 | 0.00 | 60 | 1011.4 |
| 20260902175110 | 94 | 253 | 4.0 | 5.0 | 0.00 | 0.00 | 0.00 | 58 | 1011.5 |
| 20260902174031 | 94 | 179 | 1.0 | 2.0 | 0.00 | 0.00 | 0.00 | 60 | 1011.4 |
| 20260902173511 | 94 | 241 | 4.0 | 6.0 | 0.00 | 0.00 | 0.00 | 59 | 1011.6 |
| 20260902172950 | 93 | 272 | 1.0 | 3.0 | 0.00 | 0.00 | 0.00 | 61 | 1011.6 |
| 20260902172431 | 93 | 253 | 2.0 | 4.0 | 0.00 | 0.00 | 0.00 | 62 | 1011.6 |
| 20260902171911 | 93 | 282 | 4.0 | 4.0 | 0.00 | 0.00 | 0.00 | 61 | 1011.9 |
| 20260902171351 | 93 | 219 | 2.0 | 2.0 | 0.00 | 0.00 | 0.00 | 63 | 1011.7 |
| 20260902170831 | 93 | 264 | 5.0 | 5.0 | 0.00 | 0.00 | 0.00 | 61 | 1011.7 |
| 20260902170311 | 92 | 260 | 5.0 | 8.0 | 0.00 | 0.00 | 0.00 | 61 | 1012.2 |
| 20260902165751 | 93 | 185 | 5.0 | 6.0 | 0.00 | 0.00 | 0.00 | 61 | 1012.1 |
| 20260902165230 | 93 | 264 | 2.0 | 3.0 | 0.00 | 0.00 | 0.00 | 64 | 1012.0 |
| 20260902164711 | 92 | 249 | 2.0 | 4.0 | 0.00 | 0.00 | 0.00 | 63 | 1012.1 |
| 20260902164151 | 92 | 221 | 2.0 | 3.0 | 0.00 | 0.00 | 0.00 | 62 | 1012.1 |
| 20260902163633 | 92 | 236 | 3.0 | 4.0 | 0.00 | 0.00 | 0.00 | 64 | 1012.0 |
| 20260902163127 | 92 | 220 | 4.0 | 5.0 | 0.00 | 0.00 | 0.00 | 64 | 1012.0 |
| 20260902162607 | 91 | 231 | 5.0 | 6.0 | 0.00 | 0.00 | 0.00 | 63 | 1012.1 |
| 20260902162047 | 91 | 263 | 4.0 | 4.0 | 0.00 | 0.00 | 0.00 | 64 | 1012.2 |
| 20260902161527 | 91 | 235 | 3.0 | 4.0 | 0.00 | 0.00 | 0.00 | 65 | 1012.2 |
| 20260902161007 | 91 | 255 | 3.0 | 4.0 | 0.00 | 0.00 | 0.00 | 68 | 1012.1 |
| 20260902160447 | 91 | 243 | 3.0 | 4.0 | 0.00 | 0.00 | 0.00 | 66 | 1012.3 |
| 20260902155926 | 90 | 297 | 3.0 | 4.0 | 0.00 | 0.00 | 0.00 | 67 | 1012.3 |
| 20260902155407 | 90 | 244 | 4.0 | 5.0 | 0.00 | 0.00 | 0.00 | 68 | 1012.3 |
| 20260902154847 | 90 | 267 | 3.0 | 4.0 | 0.00 | 0.00 | 0.00 | 68 | 1012.2 |
| 20260902154333 | 90 | 266 | 4.0 | 4.0 | 0.00 | 0.00 | 0.00 | 69 | 1012.5 |
| 20260902153733 | 89 | 236 | 4.0 | 5.0 | 0.00 | 0.00 | 0.00 | 71 | 1012.3 |
| 20260902153133 | 89 | 209 | 2.0 | 3.0 | 0.00 | 0.00 | 0.00 | 70 | 1012.2 |
| 20260902152633 | 89 | 266 | 4.0 | 5.0 | 0.00 | 0.00 | 0.00 | 72 | 1012.1 |
| 20260902152033 | 89 | 230 | 3.0 | 4.0 | 0.00 | 0.00 | 0.00 | 72 | 1012.1 |
| 20260902151533 | 88 | 277 | 5.0 | 6.0 | 0.00 | 0.00 | 0.00 | 72 | 1012.3 |
| 20260902150933 | 87 | 208 | 3.0 | 4.0 | 0.00 | 0.00 | 0.00 | 73 | 1012.3 |
| 20260902150333 | 87 | 296 | 5.0 | 6.0 | 0.00 | 0.00 | 0.00 | 72 | 1012.4 |
| 20260902145733 | 87 | 260 | 3.0 | 5.0 | 0.00 | 0.00 | 0.00 | 74 | 1012.2 |
| 20260902145133 | 87 | 242 | 5.0 | 8.0 | 0.00 | 0.00 | 0.00 | 72 | 1012.3 |
| 20260902144533 | 87 | 224 | 1.0 | 2.0 | 0.00 | 0.00 | 0.00 | 74 | 1012.0 |
| 20260902143933 | 86 | 236 | 2.0 | 4.0 | 0.00 | 0.00 | 0.00 | 74 | 1012.3 |
| 20260902143333 | 86 | 232 | 2.0 | 4.0 | 0.00 | 0.00 | 0.00 | 75 | 1012.2 |
| 20260902142833 | 86 | 222 | 2.0 | 4.0 | 0.00 | 0.00 | 0.00 | 76 | 1012.3 |
| 20260902142233 | 85 | 236 | 2.0 | 3.0 | 0.00 | 0.00 | 0.00 | 77 | 1012.2 |
| 20260902141133 | 84 | 237 | 3.0 | 4.0 | 0.00 | 0.00 | 0.00 | 77 | 1012.2 |
| 20260902140533 | 84 | 201 | 0.0 | 1.0 | 0.00 | 0.00 | 0.00 | 78 | 1012.1 |
| 20260902135333 | 83 | 233 | 1.0 | 2.0 | 0.00 | 0.00 | 0.00 | 81 | 1012.3 |
| 20260902134733 | 83 | 209 | 2.0 | 3.0 | 0.00 | 0.00 | 0.00 | 80 | 1012.2 |
| 20260902134233 | 83 | 188 | 1.0 | 2.0 | 0.00 | 0.00 | 0.00 | 81 | 1012.4 |
| 20260902133633 | 82 | 214 | 3.0 | 4.0 | 0.00 | 0.00 | 0.00 | 82 | 1012.4 |
| 20260902133033 | 81 | 176 | 0.0 | 0.0 | 0.00 | 0.00 | 0.00 | 85 | 1012.4 |
| 20260902132433 | 80 | 218 | 0.0 | 0.0 | 0.00 | 0.00 | 0.00 | 89 | 1012.6 |
| 20260902131833 | 78 | 208 | 0.0 | 0.0 | 0.00 | 0.00 | 0.00 | 93 | 1012.6 |
| 20260902131233 | 77 | 214 | 2.0 | 2.0 | 0.00 | 0.00 | 0.00 | 95 | 1012.6 |
| 20260902130633 | 75 | 213 | 0.0 | 0.0 | 0.00 | 0.00 | 0.00 | 99 | 1012.8 |
| 20260902130033 | 75 | 192 | 0.0 | 0.0 | 0.00 | 0.00 | 0.00 | 99 | 1012.7 |
| 20260902125433 | 74 | 210 | 0.0 | 0.0 | 0.00 | 0.00 | 0.00 | 99 | 1012.5 |
| 20260902124833 | 74 | 237 | 0.0 | 0.0 | 0.00 | 0.00 | 0.00 | 99 | 1012.5 |
| 20260902123633 | 73 | 238 | 0.0 | 0.0 | 0.00 | 0.00 | 0.00 | 99 | 1012.6 |
| 20260902123033 | 73 | 237 | 0.0 | 0.0 | 0.00 | 0.00 | 0.00 | 99 | 1012.4 |
| 20260902122533 | 72 | 238 | 0.0 | 0.0 | 0.00 | 0.00 | 0.00 | 99 | 1012.6 |
| 20260902121933 | 70 | 238 | 0.0 | 0.0 | 0.00 | 0.00 | 0.00 | 99 | 1012.5 |
| 20260902121333 | 70 | 238 | 0.0 | 0.0 | 0.00 | 0.00 | 0.00 | 99 | 1012.4 |
| 20260902120733 | 70 | 238 | 0.0 | 0.0 | 0.00 | 0.00 | 0.00 | 99 | 1012.6 |
| 20260902120233 | 70 | 238 | 0.0 | 0.0 | 0.00 | 0.00 | 0.00 | 99 | 1012.4 |
| 20260902115633 | 69 | 238 | 0.0 | 0.0 | 0.00 | 0.00 | 0.00 | 99 | 1012.5 |
| 20260902115033 | 69 | 238 | 0.0 | 0.0 | 0.00 | 0.00 | 0.00 | 99 | 1012.3 |
| 20260902114433 | 69 | 238 | 0.0 | 0.0 | 0.00 | 0.00 | 0.00 | 99 | 1012.2 |
| 20260902113933 | 69 | 238 | 0.0 | 0.0 | 0.00 | 0.00 | 0.00 | 99 | 1012.2 |
| 20260902113333 | 69 | 238 | 0.0 | 0.0 | 0.00 | 0.00 | 0.00 | 99 | 1012.5 |
| 20260902112833 | 69 | 238 | 0.0 | 0.0 | 0.00 | 0.00 | 0.00 | 99 | 1012.1 |
| 20260902112233 | 69 | 238 | 0.0 | 0.0 | 0.00 | 0.00 | 0.00 | 99 | 1012.2 |
| 20260902111633 | 69 | 238 | 0.0 | 0.0 | 0.00 | 0.00 | 0.00 | 99 | 1012.4 |
| 20260902110533 | 69 | 238 | 0.0 | 0.0 | 0.00 | 0.00 | 0.00 | 99 | 1012.2 |
| 20260902105934 | 69 | 238 | 0.0 | 0.0 | 0.00 | 0.00 | 0.00 | 99 | 1012.0 |
| 20260902105333 | 69 | 238 | 0.0 | 0.0 | 0.00 | 0.00 | 0.00 | 99 | 1012.2 |
| 20260902104733 | 69 | 238 | 0.0 | 0.0 | 0.00 | 0.00 | 0.00 | 99 | 1012.0 |
| 20260902104133 | 68 | 238 | 0.0 | 0.0 | 0.00 | 0.00 | 0.00 | 99 | 1012.1 |
| 20260902103533 | 69 | 238 | 0.0 | 0.0 | 0.00 | 0.00 | 0.00 | 99 | 1012.0 |
| 20260902102933 | 69 | 238 | 0.0 | 0.0 | 0.00 | 0.00 | 0.00 | 99 | 1011.9 |
| 20260902102333 | 69 | 238 | 0.0 | 0.0 | 0.00 | 0.00 | 0.00 | 99 | 1011.9 |
| 20260902101733 | 69 | 238 | 0.0 | 0.0 | 0.00 | 0.00 | 0.00 | 99 | 1011.9 |
| 20260902101133 | 69 | 238 | 0.0 | 0.0 | 0.00 | 0.00 | 0.00 | 99 | 1011.8 |
| 20260902100533 | 69 | 238 | 0.0 | 0.0 | 0.00 | 0.00 | 0.00 | 99 | 1011.9 |
| 20260902095933 | 69 | 238 | 0.0 | 0.0 | 0.00 | 0.00 | 0.00 | 99 | 1011.6 |
| 20260902095433 | 69 | 238 | 0.0 | 0.0 | 0.00 | 0.00 | 0.00 | 99 | 1011.7 |
| 20260902094833 | 69 | 238 | 0.0 | 0.0 | 0.00 | 0.00 | 0.00 | 99 | 1011.7 |
| 20260902093733 | 69 | 238 | 0.0 | 0.0 | 0.00 | 0.00 | 0.00 | 99 | 1011.7 |
| 20260902093133 | 69 | 238 | 0.0 | 0.0 | 0.00 | 0.00 | 0.00 | 99 | 1011.7 |
| 20260902092533 | 69 | 238 | 0.0 | 0.0 | 0.00 | 0.00 | 0.00 | 99 | 1011.7 |